Location: Asheville, NC
(35.6000°N, 82.5500°W)
Time: 22:50:09

RS-15 - Pass Details

Date: 18 March 2018
Orbit: 1887 x 2157 km, 64.8° (Epoch: 18 March)

Event Time Altitude Azimuth Distance (km) Brightness Sun altitude
Rises 06:10:47 0° 325° (NW) 5,589 10.2 -18.2°
Reaches altitude 10° 06:16:06 10° 343° (NNW) 4,538 9.9 -17.1°
Maximum altitude 06:23:41 19° 25° (NNE) 3,789 10.0 -15.6°
Drops below altitude 10° 06:31:00 10° 66° (ENE) 4,388 11.2 -14.1°
Sets 06:35:55 0° 84° (E) 5,341 12.4 -13.2°
